Terug naar catalogus

GLOBALSTAR M064

ActiefCommunicatieLEO
NORAD 26084·PAYLOAD·🇺🇸 United States

Gelanceerd Feb 8, 2000 vanaf Cape Canaveral Space Force Station

Loading…

Volgende Passages (komende 24 uur)

TLE

VersSource: Space-Track

Epoch: Sep 13, 2026, 20:35 UTC

1 26084U 00008D   26256.85796135 -.00000077  00000-0  89075-4 0  9991
2 26084  52.0018  90.2257 0001122 172.4293 187.6556 11.88546358221043

Volg GLOBALSTAR M064 in realtime met AllMySat

Download on the App Store